When you browse on this site, cookies collect data to enhance your experience and personalize the content and advertising you see.
Visit our Privacy Policy to learn more. By continuing to use the site, you agree to this use of cookies and data.

Meteo orario Haloch

Oggi, 11 Agosto, Martedi

Tempo Temperatura Precipitazioni Vento Pressione Umidità
00:00 +20°C° 0 mm 2 m/s 753 mm Hg 75%
01:00 +20°C° 0 mm 2 m/s 754 mm Hg 76%
02:00 +19°C° 0 mm 2 m/s 754 mm Hg 78%
03:00 +19°C° 0 mm 2 m/s 753 mm Hg 80%
04:00 +18°C° 0 mm 2 m/s 753 mm Hg 81%
05:00 +20°C° 0 mm 2 m/s 753 mm Hg 77%
06:00 +22°C° 0 mm 1 m/s 754 mm Hg 73%
07:00 +23°C° 0 mm 1 m/s 754 mm Hg 69%
08:00 +25°C° 0 mm 1 m/s 754 mm Hg 63%
09:00 +27°C° 0 mm 1 m/s 754 mm Hg 57%
10:00 +29°C° 0 mm 1 m/s 754 mm Hg 50%
11:00 +30°C° 0 mm 1 m/s 754 mm Hg 47%
12:00 +31°C° 0 mm 1 m/s 754 mm Hg 43%
13:00 +31°C° 0 mm 1 m/s 754 mm Hg 40%
14:00 +31°C° 0 mm 2 m/s 753 mm Hg 41%
15:00 +31°C° 0 mm 2 m/s 753 mm Hg 43%
16:00 +31°C° 0 mm 3 m/s 753 mm Hg 44%
17:00 +29°C° 0 mm 3 m/s 753 mm Hg 53%
18:00 +27°C° 0 mm 3 m/s 753 mm Hg 61%
19:00 +24°C° 0 mm 3 m/s 753 mm Hg 70%
20:00 +22°C° 0 mm 3 m/s 753 mm Hg 72%
21:00 +22°C° 0 mm 3 m/s 753 mm Hg 75%
22:00 +21°C° 0 mm 3 m/s 754 mm Hg 78%
23:00 +20°C° 0 mm 3 m/s 754 mm Hg 80%

Domani, 12 Agosto, Mercoledi

Tempo Temperatura Precipitazioni Vento Pressione Umidità
00:00 +20°C° 0 mm 3 m/s 754 mm Hg 81%
01:00 +19°C° 0 mm 3 m/s 754 mm Hg 82%
02:00 +19°C° 0 mm 3 m/s 754 mm Hg 84%
03:00 +19°C° 0 mm 3 m/s 754 mm Hg 85%
04:00 +18°C° 0 mm 3 m/s 754 mm Hg 86%
05:00 +20°C° 0 mm 3 m/s 754 mm Hg 82%
06:00 +21°C° 0 mm 3 m/s 754 mm Hg 77%
07:00 +24°C° 0 mm 3 m/s 754 mm Hg 73%
08:00 +25°C° 0 mm 3 m/s 754 mm Hg 65%
09:00 +27°C° 0 mm 3 m/s 754 mm Hg 57%
10:00 +29°C° 0 mm 4 m/s 754 mm Hg 50%
11:00 +29°C° 0 mm 4 m/s 754 mm Hg 47%
12:00 +29°C° 0 mm 4 m/s 754 mm Hg 44%
13:00 +30°C° 0 mm 4 m/s 754 mm Hg 41%
14:00 +29°C° 0 mm 4 m/s 754 mm Hg 42%
15:00 +29°C° 0 mm 5 m/s 754 mm Hg 44%
16:00 +29°C° 0 mm 5 m/s 754 mm Hg 45%
17:00 +26°C° 0 mm 4 m/s 754 mm Hg 52%
18:00 +23°C° 0 mm 4 m/s 754 mm Hg 59%
19:00 +21°C° 0 mm 4 m/s 754 mm Hg 66%
20:00 +20°C° 0 mm 3 m/s 755 mm Hg 71%
21:00 +18°C° 0 mm 3 m/s 755 mm Hg 77%
22:00 +17°C° 0 mm 3 m/s 755 mm Hg 82%
23:00 +17°C° 0 mm 3 m/s 755 mm Hg 84%

Dopodomani, 13 Agosto, Giovedi

Tempo Temperatura Precipitazioni Vento Pressione Umidità
00:00 +16°C° 0 mm 3 m/s 755 mm Hg 86%
01:00 +16°C° 0 mm 2 m/s 755 mm Hg 88%
02:00 +15°C° 0 mm 2 m/s 755 mm Hg 88%
03:00 +15°C° 0 mm 2 m/s 754 mm Hg 89%
04:00 +15°C° 0 mm 2 m/s 754 mm Hg 89%
05:00 +16°C° 0 mm 2 m/s 754 mm Hg 83%
06:00 +18°C° 0 mm 2 m/s 754 mm Hg 76%
07:00 +19°C° 0 mm 2 m/s 754 mm Hg 69%
08:00 +23°C° 0 mm 1 m/s 754 mm Hg 64%
09:00 +25°C° 0 mm 1 m/s 754 mm Hg 58%
10:00 +27°C° 0 mm 1 m/s 754 mm Hg 52%
11:00 +28°C° 0 mm 1 m/s 754 mm Hg 48%
12:00 +29°C° 0 mm 1 m/s 754 mm Hg 45%
13:00 +30°C° 0 mm 1 m/s 753 mm Hg 41%
14:00 +30°C° 0 mm 1 m/s 753 mm Hg 40%
15:00 +29°C° 0 mm 1 m/s 753 mm Hg 40%
16:00 +29°C° 0 mm 1 m/s 753 mm Hg 39%
17:00 +27°C° 0 mm 1 m/s 753 mm Hg 45%
18:00 +25°C° 0 mm 1 m/s 753 mm Hg 51%
19:00 +23°C° 0 mm 1 m/s 753 mm Hg 57%
20:00 +22°C° 0 mm 1 m/s 753 mm Hg 62%
21:00 +21°C° 0 mm 1 m/s 753 mm Hg 67%
22:00 +20°C° 0 mm 1 m/s 753 mm Hg 72%
23:00 +20°C° 0 mm 1 m/s 753 mm Hg 76%

14 Agosto, Venerdi

Tempo Temperatura Precipitazioni Vento Pressione Umidità
00:00 +19°C° 0 mm 1 m/s 753 mm Hg 80%
01:00 +19°C° 0 mm 1 m/s 753 mm Hg 84%
02:00 +18°C° 0 mm 1 m/s 753 mm Hg 85%
03:00 +18°C° 0 mm 1 m/s 752 mm Hg 86%
04:00 +18°C° 0 mm 1 m/s 752 mm Hg 87%
05:00 +19°C° 0 mm 1 m/s 752 mm Hg 81%
06:00 +21°C° 0 mm 1 m/s 752 mm Hg 76%
07:00 +22°C° 0 mm 1 m/s 752 mm Hg 70%
08:00 +24°C° 0 mm 1 m/s 752 mm Hg 64%
09:00 +26°C° 0 mm 1 m/s 752 mm Hg 58%
10:00 +28°C° 0 mm 1 m/s 752 mm Hg 53%
11:00 +29°C° 0 mm 1 m/s 752 mm Hg 50%
12:00 +29°C° 0 mm 2 m/s 752 mm Hg 47%
13:00 +30°C° 0 mm 2 m/s 751 mm Hg 44%
14:00 +30°C° 0 mm 2 m/s 751 mm Hg 45%
15:00 +30°C° 0 mm 2 m/s 751 mm Hg 46%
16:00 +30°C° 0 mm 2 m/s 751 mm Hg 47%
17:00 +28°C° 0 mm 2 m/s 751 mm Hg 54%
18:00 +26°C° 0 mm 2 m/s 751 mm Hg 61%
19:00 +24°C° 0 mm 1 m/s 751 mm Hg 68%
20:00 +23°C° 0 mm 1 m/s 751 mm Hg 71%
21:00 +23°C° 0 mm 1 m/s 751 mm Hg 73%
22:00 +22°C° 0 mm 1 m/s 751 mm Hg 76%
23:00 +22°C° 0 mm 1 m/s 750 mm Hg 76%

15 Agosto, Sabato

Tempo Temperatura Precipitazioni Vento Pressione Umidità
00:00 +22°C° 0 mm 1 m/s 750 mm Hg 75%
01:00 +22°C° 0 mm 1 m/s 750 mm Hg 75%
02:00 +22°C° 0.1 mm 1 m/s 750 mm Hg 76%
03:00 +22°C° 0.1 mm 1 m/s 750 mm Hg 77%
04:00 +22°C° 0.1 mm 1 m/s 750 mm Hg 78%
05:00 +22°C° 0 mm 1 m/s 750 mm Hg 77%
06:00 +22°C° 0 mm 1 m/s 749 mm Hg 76%
07:00 +23°C° 0 mm 1 m/s 749 mm Hg 76%
08:00 +24°C° 0.1 mm 1 m/s 750 mm Hg 74%
09:00 +24°C° 0.1 mm 1 m/s 750 mm Hg 72%
10:00 +25°C° 0.1 mm 2 m/s 750 mm Hg 71%
11:00 +24°C° 0.3 mm 2 m/s 749 mm Hg 74%
12:00 +24°C° 0.3 mm 3 m/s 749 mm Hg 77%
13:00 +22°C° 0.3 mm 3 m/s 749 mm Hg 80%
14:00 +24°C° 0.1 mm 3 m/s 749 mm Hg 76%
15:00 +25°C° 0.1 mm 3 m/s 749 mm Hg 71%
16:00 +26°C° 0.1 mm 3 m/s 748 mm Hg 67%
17:00 +24°C° 0 mm 3 m/s 748 mm Hg 72%
18:00 +23°C° 0 mm 2 m/s 748 mm Hg 78%
19:00 +21°C° 0 mm 2 m/s 748 mm Hg 83%
20:00 +20°C° 0 mm 2 m/s 748 mm Hg 85%
21:00 +19°C° 0 mm 2 m/s 748 mm Hg 87%
22:00 +20°C° 0 mm 1 m/s 748 mm Hg 88%
23:00 +19°C° 0 mm 1 m/s 748 mm Hg 88%

16 Agosto, Domenica

Tempo Temperatura Precipitazioni Vento Pressione Umidità
00:00 +19°C° 0 mm 1 m/s 748 mm Hg 88%
01:00 +19°C° 0 mm 1 m/s 748 mm Hg 88%
02:00 +19°C° 0 mm 1 m/s 748 mm Hg 88%
03:00 +19°C° 0 mm 1 m/s 748 mm Hg 88%
04:00 +19°C° 0 mm 1 m/s 748 mm Hg 88%
05:00 +20°C° 0.1 mm 1 m/s 748 mm Hg 85%
06:00 +21°C° 0.1 mm 1 m/s 748 mm Hg 83%
07:00 +22°C° 0.1 mm 1 m/s 748 mm Hg 80%
08:00 +22°C° 0.1 mm 1 m/s 749 mm Hg 78%
09:00 +23°C° 0.1 mm 1 m/s 749 mm Hg 76%
10:00 +24°C° 0.1 mm 1 m/s 749 mm Hg 74%
11:00 +25°C° 0.1 mm 2 m/s 749 mm Hg 72%
12:00 +26°C° 0.1 mm 2 m/s 749 mm Hg 69%
13:00 +26°C° 0.1 mm 3 m/s 749 mm Hg 66%
14:00 +26°C° 0.3 mm 3 m/s 749 mm Hg 66%
15:00 +26°C° 0.3 mm 3 m/s 749 mm Hg 66%
16:00 +26°C° 0.3 mm 3 m/s 749 mm Hg 66%
17:00 +25°C° 0.3 mm 3 m/s 749 mm Hg 73%
18:00 +22°C° 0.3 mm 3 m/s 749 mm Hg 80%
19:00 +21°C° 0.3 mm 2 m/s 749 mm Hg 86%
20:00 +20°C° 0.2 mm 2 m/s 749 mm Hg 88%
21:00 +19°C° 0.2 mm 2 m/s 749 mm Hg 89%
22:00 +19°C° 0.2 mm 3 m/s 750 mm Hg 91%
23:00 +19°C° 0.1 mm 2 m/s 750 mm Hg 91%
Mostrare altro